Location: Buckeye Ditch
(40.9104°N, 122.9517°W)
Time: 13:40:58
(UTC+00:00)

YAOGAN 6 - Pass Details

Date: 13 April 2024
Orbit: 415 x 435 km, 97.2° (Epoch: 21 May)

Event Time Altitude Azimuth Distance (km) Brightness Sun altitude
Rises 12:01:37 0° 8° (N) 2,392 6.6 -17.2°
Reaches altitude 10° 12:03:38 10° 6° (N) 1,527 5.6 -16.9°
Maximum altitude 12:06:52 67° 284° (WNW) 470 2.2 -16.4°
Enters shadow 12:08:03 36° 212° (SSW) 704 2.9 -16.2°
